Darwin, CA

10:49 AM PDT on July 27, 2016 (GMT -0700)
China Lake NAWS

Weather History for KNID - July, 2014

Change the Weather History Date:

Thursday, July 3, 2014

  Actual Average Record
Temperature  
Mean Temperature 90 °F -  
Max Temperature 108 °F 98 °F 127 °F (2013)
Min Temperature 73 °F 69 °F 60 °F (1997)
Cooling Degree Days 25    
Growing Degree Days 40 (Base 50)    
Moisture  
Dew Point 34 °F    
Average Humidity 15    
Maximum Humidity 25    
Minimum Humidity 6    
Precipitation  
Precipitation 0.00 in - - ()
Sea Level Pressure  
Sea Level Pressure 29.78 in    
Wind  
Wind Speed 10 mph (SSW)    
Max Wind Speed 28 mph    
Max Gust Speed 34 mph    
Visibility 10 miles    
Events      
Averages and records for this station are not official NWS values.
T = Trace of Precipitation, MM = Missing Value Source: NWS Daily Summary

Daily Weather History Graph

Daily Weather History Graph

Search for Another Location

Airport or City:

Trip Planner

Search our weather history database for the weather conditions in past years. The results will help you decide how hot, cold, wet, or windy it might be!

Date:

Astronomy

Jul. 03, 2014 Rise Set
Actual Time 5:39 AM PDT 8:10 PM PDT
Civil Twilight 5:09 AM PDT 8:40 PM PDT
Nautical Twilight 4:32 AM PDT 9:17 PM PDT
Astronomical Twilight 3:51 AM PDT 9:58 PM PDT
Moon 11:30 AM PDT (7/3) 11:48 PM PDT (7/3)
Length of Visible Light 15h 30m
Length of Day
14h 30m
Waxing Crescent, 34% of the Moon is Illuminated
Jul 3
Waxing Crescent
Jul 5
First Quarter
Jul 12
Full
Jul 18
Last Quarter
Jul 26
New

Hourly Weather History & Observations

Time (PDT) Temp. Dew Point Humidity Pressure Visibility Wind Dir Wind Speed Gust Speed Precip Events Conditions
12:56 AM 86.0 °F 39.0 °F 19% 29.74 in 10.0 mi South 12.7 mph - N/A   Unknown
1:56 AM 84.9 °F 39.0 °F 20% 29.74 in 10.0 mi South 13.8 mph - N/A   Unknown
2:56 AM 82.0 °F 39.0 °F 22% 29.75 in 10.0 mi SW 6.9 mph - N/A   Unknown
3:56 AM 75.0 °F 34.0 °F 22% 29.77 in 10.0 mi Calm Calm - N/A   Unknown
4:56 AM 75.9 °F 37.9 °F 25% 29.78 in 10.0 mi SSE 3.5 mph - N/A   Unknown
5:56 AM 73.9 °F 36.0 °F 25% 29.80 in 10.0 mi West 5.8 mph - N/A   Unknown
6:56 AM 77.0 °F 35.1 °F 22% 29.82 in 10.0 mi Calm Calm - N/A   Unknown
7:56 AM 87.1 °F 41.0 °F 20% 29.83 in 10.0 mi SSE 6.9 mph - N/A   Unknown
8:56 AM 91.0 °F 41.0 °F 17% 29.84 in 10.0 mi Variable 3.5 mph - N/A   Unknown
9:56 AM 91.9 °F 39.9 °F 16% 29.84 in 10.0 mi Calm Calm - N/A   Unknown
10:56 AM 95.0 °F 41.0 °F 15% 29.83 in 10.0 mi Variable 3.5 mph - N/A   Unknown
11:56 AM 99.0 °F 37.9 °F 12% 29.82 in 10.0 mi North - - N/A   Unknown
12:56 PM 104.0 °F 33.1 °F 9% 29.80 in 10.0 mi South 10.4 mph 25.3 mph N/A   Clear
1:56 PM 105.1 °F 26.1 °F 6% 29.78 in 10.0 mi SSW 10.4 mph 24.2 mph N/A   Clear
2:56 PM 107.1 °F 25.0 °F 6% 29.76 in 10.0 mi South 19.6 mph 29.9 mph N/A   Unknown
3:56 PM 107.1 °F 26.1 °F 6% 29.75 in 10.0 mi SSW 17.3 mph 26.5 mph N/A   Unknown
4:56 PM 106.0 °F 24.1 °F 6% 29.73 in 10.0 mi South 27.6 mph 34.5 mph N/A   Unknown
5:56 PM 104.0 °F 30.9 °F 8% 29.73 in 10.0 mi SW 16.1 mph 27.6 mph N/A   Unknown
6:56 PM 102.0 °F 30.9 °F 8% 29.73 in 10.0 mi WSW 12.7 mph 24.2 mph N/A   Unknown
7:56 PM 98.1 °F 28.9 °F 9% 29.75 in 10.0 mi WSW 13.8 mph - N/A   Unknown
8:56 PM 93.9 °F 30.9 °F 11% 29.76 in 10.0 mi SW 11.5 mph - N/A   Unknown
9:56 PM 90.0 °F 34.0 °F 14% 29.80 in 10.0 mi South 12.7 mph - N/A   Unknown
10:56 PM 87.1 °F 35.1 °F 16% 29.81 in 10.0 mi South 10.4 mph - N/A   Unknown
11:56 PM 86.0 °F 39.9 °F 20% 29.82 in 10.0 mi South 12.7 mph - N/A   Unknown